TimeCDT,TemperatureF,Dew PointF,Humidity,Sea Level PressureIn,VisibilityMPH,Wind Direction,Wind SpeedMPH,Gust SpeedMPH,PrecipitationIn,Events,Conditions,WindDirDegrees,DateUTC
12:15 AM,50.0,41.0,71,30.15,10.0,North,-9999.0,-,N/A,,Clear,0,2013-10-08 05:15:00
12:35 AM,48.2,41.0,76,30.14,10.0,North,-9999.0,-,N/A,,Clear,0,2013-10-08 05:35:00
12:55 AM,50.0,41.0,71,30.14,10.0,North,-9999.0,-,N/A,,Clear,0,2013-10-08 05:55:00
1:15 AM,46.4,41.0,81,30.13,10.0,North,-9999.0,-,N/A,,Clear,0,2013-10-08 06:15:00
1:35 AM,46.4,41.0,81,30.13,10.0,North,-9999.0,-,N/A,,Clear,0,2013-10-08 06:35:00
1:55 AM,46.4,41.0,81,30.13,10.0,North,-9999.0,-,N/A,,Clear,0,2013-10-08 06:55:00
2:15 AM,46.4,39.2,76,30.13,10.0,North,-9999.0,-,N/A,,Clear,0,2013-10-08 07:15:00
2:35 AM,44.6,39.2,81,30.13,10.0,North,-9999.0,-,N/A,,Clear,0,2013-10-08 07:35:00
2:55 AM,44.6,39.2,81,30.12,10.0,North,-9999.0,-,N/A,,Clear,0,2013-10-08 07:55:00
3:15 AM,44.6,39.2,81,30.12,10.0,North,-9999.0,-,N/A,,Clear,0,2013-10-08 08:15:00
3:35 AM,44.6,37.4,76,30.11,10.0,North,-9999.0,-,N/A,,Clear,0,2013-10-08 08:35:00
3:55 AM,44.6,37.4,76,30.11,10.0,North,-9999.0,-,N/A,,Clear,0,2013-10-08 08:55:00
4:15 AM,44.6,37.4,76,30.11,10.0,North,-9999.0,-,N/A,,Clear,0,2013-10-08 09:15:00
4:35 AM,42.8,37.4,81,30.10,10.0,North,-9999.0,-,N/A,,Clear,0,2013-10-08 09:35:00
4:55 AM,42.8,37.4,81,30.10,10.0,North,-9999.0,-,N/A,,Clear,0,2013-10-08 09:55:00
5:15 AM,42.8,37.4,81,30.10,10.0,North,-9999.0,-,N/A,,Clear,0,2013-10-08 10:15:00
5:35 AM,42.8,37.4,81,30.10,10.0,North,-9999.0,-,N/A,,Clear,0,2013-10-08 10:35:00
5:55 AM,42.8,37.4,81,30.10,10.0,North,-9999.0,-,N/A,,Clear,0,2013-10-08 10:55:00
6:15 AM,41.0,37.4,87,30.10,10.0,North,-9999.0,-,N/A,,Clear,0,2013-10-08 11:15:00
6:35 AM,41.0,37.4,87,30.11,10.0,North,-9999.0,-,N/A,,Clear,0,2013-10-08 11:35:00
6:55 AM,41.0,37.4,87,30.11,10.0,North,-9999.0,-,N/A,,Clear,0,2013-10-08 11:55:00
7:15 AM,42.8,37.4,81,30.11,10.0,North,-9999.0,-,N/A,,Clear,0,2013-10-08 12:15:00
7:35 AM,41.0,35.6,81,30.11,10.0,North,-9999.0,-,N/A,,Clear,0,2013-10-08 12:35:00
7:55 AM,41.0,35.6,81,30.11,10.0,North,-9999.0,-,N/A,,Clear,0,2013-10-08 12:55:00
8:15 AM,41.0,35.6,81,30.11,10.0,North,-9999.0,-,N/A,,Clear,0,2013-10-08 13:15:00
8:35 AM,42.8,37.4,81,30.11,10.0,North,-9999.0,-,N/A,,Clear,0,2013-10-08 13:35:00
8:55 AM,48.2,41.0,76,30.12,10.0,North,-9999.0,-,N/A,,Clear,0,2013-10-08 13:55:00
9:15 AM,53.6,41.0,62,30.12,10.0,North,-9999.0,-,N/A,,Clear,0,2013-10-08 14:15:00
9:35 AM,59.0,41.0,51,30.12,10.0,North,-9999.0,-,N/A,,Clear,0,2013-10-08 14:35:00
9:55 AM,62.6,41.0,45,30.12,10.0,North,-9999.0,-,N/A,,Clear,0,2013-10-08 14:55:00
10:15 AM,66.2,39.2,37,30.13,10.0,North,-9999.0,-,N/A,,Clear,0,2013-10-08 15:15:00
10:35 AM,69.8,37.4,31,30.13,10.0,North,-9999.0,-,N/A,,Clear,0,2013-10-08 15:35:00
10:55 AM,71.6,37.4,29,30.13,10.0,North,-9999.0,-,N/A,,Clear,0,2013-10-08 15:55:00
11:15 AM,73.4,37.4,27,30.12,10.0,North,-9999.0,-,N/A,,Clear,0,2013-10-08 16:15:00
11:35 AM,77.0,35.6,22,30.12,10.0,North,-9999.0,-,N/A,,Clear,0,2013-10-08 16:35:00
11:55 AM,77.0,33.8,21,30.12,10.0,North,-9999.0,-,N/A,,Clear,0,2013-10-08 16:55:00
12:35 PM,78.8,35.6,21,30.11,10.0,North,-9999.0,-,N/A,,Unknown,0,2013-10-08 17:35:00
12:55 PM,78.8,33.8,20,30.10,10.0,North,-9999.0,-,N/A,,Clear,0,2013-10-08 17:55:00
1:15 PM,-9999,-9999,N/A,-9999,-9999.0,North,-9999.0,-,N/A,,Unknown,0,2013-10-08 18:15:00
1:35 PM,-9999,-9999,N/A,30.09,-9999.0,North,-9999.0,-,N/A,,Unknown,0,2013-10-08 18:35:00
1:55 PM,78.8,35.6,21,30.08,10.0,North,-9999.0,-,N/A,,Clear,0,2013-10-08 18:55:00
2:15 PM,-9999,-9999,N/A,-9999,-9999.0,North,-9999.0,-,N/A,,Unknown,0,2013-10-08 19:15:00
2:35 PM,78.8,35.6,21,30.05,-9999.0,North,-9999.0,-,N/A,,Unknown,0,2013-10-08 19:35:00
2:55 PM,80.6,35.6,20,30.04,10.0,SSW,11.5,21.9,N/A,,Clear,200,2013-10-08 19:55:00
3:15 PM,80.6,33.8,18,30.04,10.0,South,16.1,26.5,N/A,,Clear,180,2013-10-08 20:15:00
3:35 PM,80.6,33.8,18,30.03,10.0,South,18.4,28.8,N/A,,Clear,190,2013-10-08 20:35:00
3:55 PM,80.6,33.8,18,30.03,10.0,South,17.3,20.7,N/A,,Clear,170,2013-10-08 20:55:00
4:15 PM,80.6,33.8,18,30.03,10.0,South,15.0,23.0,N/A,,Clear,190,2013-10-08 21:15:00
4:35 PM,80.6,33.8,18,30.02,10.0,South,15.0,21.9,N/A,,Clear,190,2013-10-08 21:35:00
4:55 PM,78.8,33.8,20,30.02,10.0,South,12.7,-,N/A,,Clear,180,2013-10-08 21:55:00
5:15 PM,80.6,35.6,20,30.01,10.0,South,13.8,23.0,N/A,,Clear,170,2013-10-08 22:15:00
5:35 PM,78.8,35.6,21,30.01,10.0,South,11.5,17.3,N/A,,Clear,180,2013-10-08 22:35:00
5:55 PM,78.8,35.6,21,30.01,10.0,South,12.7,19.6,N/A,,Clear,170,2013-10-08 22:55:00
6:15 PM,78.8,35.6,21,30.01,10.0,South,16.1,19.6,N/A,,Clear,180,2013-10-08 23:15:00
6:35 PM,78.8,33.8,20,30.00,10.0,South,12.7,18.4,N/A,,Clear,180,2013-10-08 23:35:00
6:55 PM,77.0,35.6,22,30.00,10.0,South,12.7,18.4,N/A,,Clear,170,2013-10-08 23:55:00
7:15 PM,73.4,35.6,25,30.01,10.0,South,10.4,-,N/A,,Clear,170,2013-10-09 00:15:00
7:35 PM,71.6,35.6,27,30.01,10.0,South,10.4,-,N/A,,Clear,170,2013-10-09 00:35:00
7:55 PM,69.8,37.4,31,30.01,10.0,SSE,8.1,-,N/A,,Clear,160,2013-10-09 00:55:00
8:15 PM,68.0,37.4,33,30.01,10.0,South,8.1,-,N/A,,Clear,170,2013-10-09 01:15:00
8:35 PM,68.0,37.4,33,30.02,10.0,South,8.1,-,N/A,,Clear,170,2013-10-09 01:35:00
8:55 PM,68.0,37.4,33,30.02,10.0,South,9.2,-,N/A,,Clear,170,2013-10-09 01:55:00
9:15 PM,66.2,37.4,35,30.02,10.0,SSE,6.9,-,N/A,,Clear,160,2013-10-09 02:15:00
9:35 PM,64.4,37.4,37,30.02,10.0,SSE,5.8,-,N/A,,Clear,150,2013-10-09 02:35:00
9:55 PM,64.4,37.4,37,30.02,10.0,SSE,6.9,-,N/A,,Clear,160,2013-10-09 02:55:00
10:15 PM,64.4,37.4,37,30.02,10.0,SSE,9.2,-,N/A,,Clear,160,2013-10-09 03:15:00
10:35 PM,64.4,37.4,37,30.02,10.0,SSE,8.1,-,N/A,,Clear,160,2013-10-09 03:35:00
10:55 PM,62.6,39.2,42,30.02,10.0,SSE,8.1,-,N/A,,Clear,160,2013-10-09 03:55:00
11:15 PM,60.8,39.2,45,30.03,10.0,Calm,Calm,-,N/A,,Clear,0,2013-10-09 04:15:00
11:35 PM,60.8,41.0,48,30.02,10.0,Calm,Calm,-,N/A,,Clear,0,2013-10-09 04:35:00
11:55 PM,57.2,41.0,55,30.02,10.0,Calm,Calm,-,N/A,,Clear,0,2013-10-09 04:55:00